Home   Weather   Amersfoort   Past weeks

Flag for Netherlands Past Weather in Amersfoort, Netherlands — Yesterday and Last 2 Weeks

Now
48 °F

Overcast.


Feels Like: 43 °F
Forecast: 37 / 54 °F
Wind: 12 mph from Northwest

Location: Deelen

Current Time: Apr 23, 2017 at 5:53:17 pm

Latest Report: Apr 23, 2017 at 5:25 pm


Visibility: N/A

Pressure: 30.27 "Hg

Humidity: 62%

Dew Point: 36 °F

Location of AmersfoortLocation

Past Weather in Amersfoort — Graph

°F

Amersfoort Temperature Yesterday

Maximum temperature yesterday: 52 °F (at 4:55 pm)
Minimum temperature yesterday: 37 °F (at 11:25 pm)
Average temperature yesterday: 46 °F

High & Low Weather Summary for the Past Weeks

 TemperatureHumidityPressure
High70 °F (Apr 9, 3:55 pm)100% (Apr 11, 1:55 am)30.63 "Hg (Apr 11, 1:55 am)
Low23 °F (Apr 20, 6:55 am)31% (Apr 9, 5:55 pm)29.86 "Hg (Apr 15, 4:55 am)
Average45 °F74%30.20 "Hg
* Reported Apr 8 4:25 pm — Apr 23 4:55 pm, Amersfoort, Weather by CustomWeather, © 2017

Note: Actual official high and low records may vary slightly from our data, if they occured in-between our weather recording intervals... More about our weather records

Advertising

Amersfoort Weather History for the Previous 24 Hours

Scroll right to see more
 ConditionsComfort  
Time TempWeatherWind HumidityBarometerVisibility
4:55 pm
Sun, Apr 23
48 °FBroken clouds.10 mph58%30.27 "HgN/A
4:25 pm48 °FMostly cloudy.9 mph62%30.27 "HgN/A
3:55 pm48 °FMostly cloudy.10 mph66%30.27 "HgN/A
2:55 pm50 °FBroken clouds.13 mph58%30.27 "HgN/A
1:55 pm48 °FOvercast.12 mph58%30.27 "HgN/A
1:25 pm48 °FBroken clouds.13 mph58%30.27 "HgN/A
12:55 pm48 °FBroken clouds.8 mph66%30.30 "HgN/A
12:25 pm46 °FBroken clouds.9 mph71%30.30 "HgN/A
11:55 am46 °FPartly sunny.12 mph62%30.30 "HgN/A
11:25 am46 °FCloudy.14 mph62%30.30 "HgN/A
10:55 am46 °FScattered clouds.9 mph71%30.30 "HgN/A
10:25 am46 °FOvercast.13 mph66%30.30 "HgN/A
9:55 am45 °FOvercast.13 mph71%30.30 "HgN/A
8:55 am41 °FPassing clouds.3 mph87%30.27 "HgN/A
8:25 am39 °FPassing clouds.2 mph87%30.27 "HgN/A
7:55 am37 °FScattered clouds.1 mph93%30.27 "HgN/A
7:25 am36 °FDrizzle. Broken clouds.3 mph93%30.27 "Hg4 mi
6:55 am34 °FFog.2 mph100%30.27 "Hg3 mi
6:25 am34 °FFog.3 mph100%30.27 "Hg4 mi
5:55 am36 °FPassing clouds.2 mph93%30.27 "HgN/A
5:25 am36 °FOvercast.2 mph100%30.27 "HgN/A
4:55 am37 °FPassing clouds.8 mph93%30.27 "HgN/A
4:25 am37 °FPartly cloudy.5 mph93%30.27 "HgN/A
3:55 am37 °FOvercast.3 mph93%30.27 "HgN/A
3:25 am36 °FPartly cloudy.5 mph100%30.27 "HgN/A
2:55 am37 °FOvercast.1 mph93%30.27 "HgN/A
2:25 am37 °FLight rain. Mostly cloudy.5 mph87%30.27 "HgN/A
1:55 am37 °FPartly cloudy.2 mph87%30.27 "HgN/A
1:25 am36 °FOvercast.3 mph93%30.27 "HgN/A
12:55 am36 °FPassing clouds.2 mph93%30.27 "HgN/A
12:25 am36 °FPassing clouds.2 mph93%30.27 "HgN/A
11:55 pm
Sat, Apr 22
39 °FPartly cloudy.2 mph81%30.27 "HgN/A
11:25 pm37 °FPassing clouds.3 mph87%30.27 "HgN/A
10:55 pm39 °FPassing clouds.5 mph75%30.27 "HgN/A
10:25 pm41 °FPassing clouds.6 mph76%30.27 "HgN/A
9:55 pm41 °FPassing clouds.8 mph76%30.27 "HgN/A
9:25 pm45 °FPartly cloudy.7 mph66%30.27 "HgN/A
8:25 pm45 °FOvercast.10 mph61%30.27 "HgN/A
7:55 pm46 °FBroken clouds.12 mph57%30.27 "HgN/A
7:25 pm46 °FOvercast.10 mph62%30.27 "HgN/A
6:55 pm46 °FPartly sunny.12 mph62%30.27 "HgN/A
6:25 pm46 °FPartly sunny.16 mph62%30.27 "HgN/A
5:55 pm50 °FBroken clouds.15 mph54%30.27 "HgN/A
5:25 pm48 °FCloudy.17 mph54%30.27 "HgN/A
Weather by CustomWeather, © 2017

See weather overviewHow to use our weather pages